Home > Weather > Sørumsand > Past weeks

Flag for Norway Past Weather in Sørumsand, Norway — Yesterday and Last 2 Weeks

Now
54 °F

Rain. Fog.


Feels Like: 51 °F
Forecast: 52 / 60 °F
Wind: 8 mph from Southeast

Location: Oslo Gardermoen Airport

Current Time: Jul 1, 2016 at 7:07:58 PM

Latest Report: Jul 1, 2016 at 6:20 PM


Visibility: 2 mi

Pressure: 29.65 "Hg

Humidity: 88%

Dew Point: 50 °F

Location of SørumsandLocation

Past Weather in Sørumsand — Graph

°F

Sørumsand Temperature Yesterday

Maximum temperature yesterday: 61 °F (at 6:20 PM)
Minimum temperature yesterday: 54 °F (at 1:20 AM)
Average temperature yesterday: 56 °F

High & Low Weather Summary for the Past Weeks

 TemperatureHumidityPressure
High75 °F (Jun 25, 3:20 PM)94% (Jun 17, 8:20 PM)30.15 "Hg (Jun 17, 8:20 PM)
Low48 °F (Jun 19, 3:50 AM)29% (Jun 16, 6:50 PM)29.56 "Hg (Jun 16, 5:20 PM)
Average59 °F71%29.83 "Hg
* Reported Jun 16 5:20 PM — Jul 1 5:50 PM, Sørumsand, Weather by CustomWeather, © 2016

Note: Actual official high and low records may vary slightly from our data, if they occured in-between our weather recording intervals... More about our weather records

Advertising

Sørumsand Weather History for the Previous 24 Hours

Scroll right to see more
 ConditionsComfort  
Time TempWeatherWind HumidityBarometerVisibility
5:50 PM
Fri, Jul 1
55 °FRain. More clouds than sun.13 mph82%29.65 "HgN/A
5:20 PM55 °FPartly sunny.14 mph82%29.65 "HgN/A
4:50 PM57 °FBroken clouds.8 mph88%29.65 "HgN/A
4:20 PM55 °FRain. Broken clouds.10 mph88%29.68 "HgN/A
3:50 PM59 °FLight rain. Broken clouds.9 mph82%29.68 "HgN/A
3:20 PM57 °FLight rain. Broken clouds.9 mph77%29.68 "HgN/A
2:50 PM57 °FLight rain. Broken clouds.12 mph82%29.68 "HgN/A
2:20 PM55 °FBroken clouds.12 mph77%29.68 "HgN/A
1:50 PM57 °FSprinkles. Broken clouds.9 mph77%29.68 "HgN/A
1:20 PM57 °FPartly sunny.10 mph72%29.68 "HgN/A
12:50 PM57 °FSprinkles. Partly sunny.9 mph77%29.68 "HgN/A
12:20 PM57 °FScattered showers. Partly sunny.9 mph72%29.68 "HgN/A
11:50 AM59 °FPartly sunny.9 mph63%29.71 "HgN/A
11:20 AM57 °FPassing clouds.12 mph67%29.71 "HgN/A
10:50 AM57 °FPartly sunny.9 mph67%29.71 "HgN/A
10:20 AM57 °FBroken clouds.12 mph72%29.71 "HgN/A
9:50 AM57 °FBroken clouds.10 mph77%29.74 "HgN/A
9:20 AM55 °FPartly sunny.9 mph82%29.74 "HgN/A
8:50 AM55 °FBroken clouds.8 mph82%29.74 "HgN/A
8:20 AM55 °FPartly sunny.8 mph82%29.74 "HgN/A
7:50 AM54 °FPartly sunny.9 mph88%29.74 "HgN/A
7:20 AM54 °FBroken clouds.7 mph88%29.74 "HgN/A
6:50 AM54 °FBroken clouds.7 mph88%29.74 "HgN/A
6:20 AM52 °FBroken clouds.7 mph88%29.74 "HgN/A
5:50 AM52 °FPartly sunny.6 mph88%29.74 "HgN/A
5:20 AM52 °FPartly sunny.7 mph94%29.74 "HgN/A
4:50 AM52 °FPassing clouds.7 mph94%29.74 "HgN/A
3:50 AM54 °FPartly cloudy.8 mph82%29.74 "HgN/A
3:20 AM54 °FScattered showers. Partly cloudy.9 mph82%29.74 "HgN/A
2:50 AM54 °FPassing clouds.8 mph82%29.74 "HgN/A
2:20 AM52 °FPartly cloudy.7 mph88%29.74 "HgN/A
1:50 AM54 °FPassing clouds.7 mph88%29.74 "HgN/A
1:20 AM54 °FPartly cloudy.10 mph82%29.74 "HgN/A
12:50 AM54 °FPartly cloudy.10 mph88%29.74 "HgN/A
12:20 AM54 °FPassing clouds.13 mph88%29.74 "HgN/A
11:50 PM
Thu, Jun 30
54 °FPassing clouds.9 mph82%29.71 "HgN/A
11:20 PM55 °FPartly sunny.12 mph77%29.71 "HgN/A
10:50 PM55 °FScattered showers. Scattered clouds.13 mph77%29.71 "HgN/A
10:20 PM55 °FScattered clouds.12 mph72%29.71 "HgN/A
9:50 PM57 °FSunny.15 mph67%29.71 "Hg10 mi
9:20 PM57 °FScattered clouds.14 mph72%29.71 "HgN/A
8:50 PM57 °FRain showers. Scattered clouds.12 mph72%29.68 "HgN/A
8:20 PM57 °FScattered showers. Passing clouds.17 mph67%29.68 "HgN/A
7:50 PM61 °FScattered showers. Scattered clouds.20 mph63%29.68 "HgN/A
7:20 PM61 °FScattered clouds.18 mph59%29.68 "HgN/A
Weather by CustomWeather, © 2016

See weather overviewHow to use our weather pages